Voltar ao catálogo

STARLINK-2122

AtivoComunicaçõesVLEO
NORAD 47400·PAYLOAD·🇺🇸 United States

Lançado Jan 20, 2021 de Cape Canaveral Space Force Station

Loading…

Próximas Passagens (próximas 24 horas)

TLE

AtualizadoSource: CelesTrak SupGP

Época: Sep 15, 2026, 02:13 UTC

1 47400C 21005BD  26258.09284722 -.00023134  00000+0 -74422-3 0  2584
2 47400  53.1594 212.0884 0001417  75.2809  11.4628 15.31701120    17

Acompanhe STARLINK-2122 em tempo real com AllMySat

Download on the App Store